| time (UTC) | temp F | wind direction | speed MPH | gust MPH | rain 1hr in | rain 24hr in | rain mn in | humidity % | barometer mb |
| 20260509045020 | 40 | 0 | 0.0 | 0.0 | 0.00 | 0.00 | 0.00 | 83 | 1013.8 |
| 20260509044537 | 40 | 0 | 0.0 | 0.0 | 0.00 | 0.00 | 0.00 | 83 | 1013.8 |
| 20260509044018 | 40 | 0 | 0.0 | 0.0 | 0.00 | 0.00 | 0.00 | 82 | 1013.7 |
| 20260509043519 | 40 | 0 | 0.0 | 0.0 | 0.00 | 0.00 | 0.00 | 81 | 1013.8 |
| 20260509043034 | 40 | 0 | 0.0 | 0.0 | 0.00 | 0.00 | 0.00 | 81 | 1013.8 |
| 20260509042520 | 40 | 0 | 0.0 | 0.0 | 0.00 | 0.00 | 0.00 | 80 | 1013.7 |
| 20260509042019 | 41 | 0 | 0.0 | 0.0 | 0.00 | 0.00 | 0.00 | 80 | 1013.8 |
| 20260509041538 | 41 | 0 | 0.0 | 1.0 | 0.00 | 0.00 | 0.00 | 80 | 1013.7 |
| 20260509041019 | 41 | 0 | 0.0 | 1.0 | 0.00 | 0.00 | 0.00 | 80 | 1013.6 |
| 20260509040519 | 41 | 0 | 0.0 | 0.0 | 0.00 | 0.00 | 0.00 | 80 | 1013.5 |
| 20260509040042 | 41 | 0 | 0.0 | 0.0 | 0.00 | 0.00 | 0.00 | 79 | 1013.6 |
| 20260509035519 | 41 | 0 | 0.0 | 0.0 | 0.00 | 0.00 | 0.00 | 79 | 1013.5 |
| 20260509035019 | 41 | 0 | 0.0 | 0.0 | 0.00 | 0.00 | 0.00 | 78 | 1013.4 |
| 20260509034542 | 42 | 0 | 0.0 | 0.0 | 0.00 | 0.00 | 0.00 | 77 | 1013.4 |
| 20260509034021 | 42 | 0 | 0.0 | 0.0 | 0.00 | 0.00 | 0.00 | 77 | 1013.5 |
| 20260509033518 | 42 | 0 | 0.0 | 0.0 | 0.00 | 0.00 | 0.00 | 77 | 1013.6 |
| 20260509033037 | 42 | 0 | 0.0 | 0.0 | 0.00 | 0.00 | 0.00 | 77 | 1013.5 |
| 20260509032520 | 43 | 0 | 0.0 | 0.0 | 0.00 | 0.00 | 0.00 | 77 | 1013.6 |
| 20260509032019 | 43 | 0 | 0.0 | 0.0 | 0.00 | 0.00 | 0.00 | 76 | 1013.6 |
| 20260509031537 | 43 | 0 | 0.0 | 0.0 | 0.00 | 0.00 | 0.00 | 76 | 1013.6 |
| 20260509031019 | 43 | 0 | 0.0 | 0.0 | 0.00 | 0.00 | 0.00 | 75 | 1013.5 |
| 20260509030520 | 43 | 0 | 0.0 | 0.0 | 0.00 | 0.00 | 0.00 | 75 | 1013.5 |
| 20260509030039 | 43 | 0 | 0.0 | 0.0 | 0.00 | 0.00 | 0.00 | 74 | 1013.4 |
| 20260509025519 | 43 | 0 | 0.0 | 0.0 | 0.00 | 0.00 | 0.00 | 74 | 1013.4 |
| 20260509025018 | 43 | 0 | 0.0 | 1.0 | 0.00 | 0.00 | 0.00 | 75 | 1013.4 |
| 20260509024537 | 44 | 0 | 0.0 | 1.0 | 0.00 | 0.00 | 0.00 | 74 | 1013.3 |
| 20260509024018 | 44 | 0 | 0.0 | 0.0 | 0.00 | 0.00 | 0.00 | 74 | 1013.3 |
| 20260509023519 | 44 | 0 | 0.0 | 0.0 | 0.00 | 0.00 | 0.00 | 73 | 1013.2 |
| 20260509023040 | 44 | 0 | 0.0 | 0.0 | 0.00 | 0.00 | 0.00 | 73 | 1013.2 |
| 20260509022518 | 44 | 0 | 0.0 | 0.0 | 0.00 | 0.00 | 0.00 | 72 | 1013.1 |
| 20260509022019 | 45 | 0 | 0.0 | 0.0 | 0.00 | 0.00 | 0.00 | 71 | 1013.1 |
| 20260509021537 | 45 | 0 | 0.0 | 0.0 | 0.00 | 0.00 | 0.00 | 70 | 1013.1 |
| 20260509021022 | 45 | 0 | 0.0 | 0.0 | 0.00 | 0.00 | 0.00 | 70 | 1013.0 |
| 20260509020520 | 46 | 0 | 0.0 | 0.0 | 0.00 | 0.00 | 0.00 | 70 | 1013.0 |
| 20260509020038 | 46 | 0 | 0.0 | 0.0 | 0.00 | 0.00 | 0.00 | 69 | 1012.9 |
| 20260509015520 | 46 | 0 | 0.0 | 0.0 | 0.00 | 0.00 | 0.00 | 68 | 1012.8 |
| 20260509015022 | 47 | 0 | 0.0 | 0.0 | 0.00 | 0.00 | 0.00 | 66 | 1012.8 |
| 20260509014542 | 47 | 0 | 0.0 | 0.0 | 0.00 | 0.00 | 0.00 | 66 | 1012.7 |
| 20260509014019 | 48 | 0 | 0.0 | 1.0 | 0.00 | 0.00 | 0.00 | 66 | 1012.6 |
| 20260509013520 | 48 | 0 | 0.0 | 1.0 | 0.00 | 0.00 | 0.00 | 65 | 1012.5 |
| 20260509013043 | 48 | 0 | 0.0 | 1.0 | 0.00 | 0.00 | 0.00 | 64 | 1012.3 |
| 20260509012519 | 48 | 0 | 0.0 | 1.0 | 0.00 | 0.00 | 0.00 | 64 | 1012.2 |
| 20260509012019 | 48 | 0 | 0.0 | 1.0 | 0.00 | 0.00 | 0.00 | 64 | 1012.0 |
| 20260509011542 | 48 | 0 | 0.0 | 1.0 | 0.00 | 0.00 | 0.00 | 63 | 1011.9 |
| 20260509011019 | 48 | 0 | 0.0 | 1.0 | 0.00 | 0.00 | 0.00 | 63 | 1011.8 |
| 20260509010520 | 48 | 0 | 0.0 | 1.0 | 0.00 | 0.00 | 0.00 | 64 | 1011.7 |
| 20260509010037 | 49 | 0 | 0.0 | 2.0 | 0.00 | 0.00 | 0.00 | 63 | 1011.7 |
| 20260509005520 | 49 | 243 | 0.0 | 2.0 | 0.00 | 0.00 | 0.00 | 62 | 1011.6 |
| 20260509005019 | 49 | 0 | 0.0 | 1.0 | 0.00 | 0.00 | 0.00 | 62 | 1011.5 |
| 20260509004536 | 49 | 0 | 0.0 | 1.0 | 0.00 | 0.00 | 0.00 | 63 | 1011.5 |
| 20260509004022 | 50 | 0 | 0.0 | 0.0 | 0.00 | 0.00 | 0.00 | 60 | 1011.4 |
| 20260509003518 | 50 | 0 | 0.0 | 0.0 | 0.00 | 0.00 | 0.00 | 59 | 1011.2 |
| 20260509003036 | 51 | 0 | 0.0 | 1.0 | 0.00 | 0.00 | 0.00 | 58 | 1011.1 |
| 20260509002521 | 51 | 0 | 0.0 | 2.0 | 0.00 | 0.00 | 0.00 | 57 | 1011.0 |
| 20260509002020 | 52 | 0 | 0.0 | 2.0 | 0.00 | 0.00 | 0.00 | 57 | 1010.9 |
| 20260509001538 | 52 | 0 | 0.0 | 1.0 | 0.00 | 0.00 | 0.00 | 56 | 1010.9 |
| 20260509001020 | 52 | 175 | 0.0 | 1.0 | 0.00 | 0.00 | 0.00 | 55 | 1010.8 |
| 20260509000518 | 52 | 0 | 0.0 | 3.0 | 0.00 | 0.00 | 0.00 | 54 | 1010.7 |
| 20260509000038 | 53 | 0 | 1.0 | 3.0 | 0.00 | 0.00 | 0.00 | 53 | 1010.6 |
| 20260508235519 | 53 | 0 | 0.0 | 2.0 | 0.00 | 0.00 | 0.00 | 53 | 1010.4 |
| 20260508235019 | 53 | 0 | 0.0 | 1.0 | 0.00 | 0.00 | 0.00 | 53 | 1010.5 |
| 20260508234537 | 54 | 0 | 0.0 | 1.0 | 0.00 | 0.00 | 0.00 | 52 | 1010.4 |
| 20260508234019 | 54 | 257 | 0.0 | 5.0 | 0.00 | 0.00 | 0.00 | 51 | 1010.3 |
| 20260508233518 | 54 | 0 | 1.0 | 5.0 | 0.00 | 0.00 | 0.00 | 51 | 1010.3 |
| 20260508233047 | 54 | 283 | 1.0 | 5.0 | 0.00 | 0.00 | 0.00 | 50 | 1010.1 |
| 20260508232519 | 55 | 46 | 0.0 | 3.0 | 0.00 | 0.00 | 0.00 | 51 | 1010.0 |
| 20260508232023 | 55 | 237 | 0.0 | 2.0 | 0.00 | 0.00 | 0.00 | 50 | 1010.0 |
| 20260508231543 | 55 | 0 | 0.0 | 5.0 | 0.00 | 0.00 | 0.00 | 50 | 1010.0 |
| 20260508231019 | 55 | 319 | 2.0 | 6.0 | 0.00 | 0.00 | 0.00 | 48 | 1010.0 |
| 20260508230520 | 56 | 266 | 2.0 | 7.0 | 0.00 | 0.00 | 0.00 | 48 | 1009.9 |
| 20260508230050 | 56 | 356 | 1.0 | 10.0 | 0.00 | 0.00 | 0.00 | 47 | 1009.8 |
| 20260508225519 | 56 | 310 | 3.0 | 10.0 | 0.00 | 0.00 | 0.00 | 48 | 1009.8 |
| 20260508225020 | 57 | 188 | 1.0 | 8.0 | 0.00 | 0.00 | 0.00 | 48 | 1009.8 |
| 20260508224537 | 56 | 186 | 2.0 | 10.0 | 0.00 | 0.00 | 0.00 | 47 | 1009.8 |
| 20260508224019 | 57 | 48 | 1.0 | 10.0 | 0.00 | 0.00 | 0.00 | 48 | 1009.6 |
| 20260508223521 | 57 | 218 | 1.0 | 6.0 | 0.00 | 0.00 | 0.00 | 49 | 1009.7 |
| 20260508223037 | 57 | 61 | 1.0 | 10.0 | 0.00 | 0.00 | 0.00 | 48 | 1009.8 |
| 20260508222519 | 57 | 287 | 3.0 | 10.0 | 0.00 | 0.00 | 0.00 | 48 | 1009.6 |
| 20260508222018 | 57 | 284 | 2.0 | 5.0 | 0.00 | 0.00 | 0.00 | 47 | 1009.4 |
| 20260508221537 | 58 | 317 | 2.0 | 5.0 | 0.00 | 0.00 | 0.00 | 48 | 1009.5 |
| 20260508221019 | 57 | 23 | 1.0 | 6.0 | 0.00 | 0.00 | 0.00 | 49 | 1009.4 |
| 20260508220519 | 57 | 257 | 2.0 | 6.0 | 0.00 | 0.00 | 0.00 | 49 | 1009.4 |
| 20260508220040 | 57 | 338 | 1.0 | 5.0 | 0.00 | 0.00 | 0.00 | 50 | 1009.3 |
| 20260508215519 | 57 | 245 | 1.0 | 6.0 | 0.00 | 0.00 | 0.00 | 50 | 1009.4 |
| 20260508215019 | 57 | 185 | 3.0 | 6.0 | 0.00 | 0.00 | 0.00 | 49 | 1009.3 |
| 20260508214539 | 57 | 192 | 1.0 | 7.0 | 0.00 | 0.00 | 0.00 | 50 | 1009.4 |
| 20260508214022 | 57 | 237 | 3.0 | 13.0 | 0.00 | 0.00 | 0.00 | 49 | 1009.3 |
| 20260508213518 | 57 | 267 | 4.0 | 13.0 | 0.00 | 0.00 | 0.00 | 48 | 1009.4 |
| 20260508213039 | 58 | 296 | 3.0 | 12.0 | 0.00 | 0.00 | 0.00 | 48 | 1009.3 |
| 20260508212519 | 58 | 293 | 2.0 | 7.0 | 0.00 | 0.00 | 0.00 | 48 | 1009.3 |
| 20260508212018 | 58 | 230 | 2.0 | 7.0 | 0.00 | 0.00 | 0.00 | 48 | 1009.3 |
| 20260508211539 | 58 | 304 | 2.0 | 12.0 | 0.00 | 0.00 | 0.00 | 49 | 1009.4 |
| 20260508211023 | 58 | 200 | 3.0 | 12.0 | 0.00 | 0.00 | 0.00 | 47 | 1009.4 |
| 20260508210519 | 58 | 307 | 4.0 | 11.0 | 0.00 | 0.00 | 0.00 | 47 | 1009.3 |
| 20260508210040 | 58 | 236 | 3.0 | 11.0 | 0.00 | 0.00 | 0.00 | 49 | 1009.3 |
| 20260508205518 | 57 | 229 | 1.0 | 11.0 | 0.00 | 0.00 | 0.00 | 48 | 1009.3 |
| 20260508205022 | 57 | 278 | 2.0 | 11.0 | 0.00 | 0.00 | 0.00 | 48 | 1009.2 |
| 20260508204545 | 57 | 309 | 3.0 | 7.0 | 0.00 | 0.00 | 0.00 | 48 | 1009.2 |
| 20260508204021 | 57 | 278 | 2.0 | 7.0 | 0.00 | 0.00 | 0.00 | 48 | 1009.3 |
| 20260508203519 | 57 | 321 | 2.0 | 13.0 | 0.00 | 0.00 | 0.00 | 47 | 1009.1 |
| 20260508203049 | 57 | 293 | 4.0 | 13.0 | 0.00 | 0.00 | 0.00 | 47 | 1009.2 |
| 20260508202519 | 58 | 276 | 2.0 | 7.0 | 0.00 | 0.00 | 0.00 | 45 | 1009.1 |
| 20260508202019 | 59 | 226 | 2.0 | 7.0 | 0.00 | 0.00 | 0.00 | 45 | 1008.8 |
| 20260508201534 | 59 | 302 | 1.0 | 6.0 | 0.00 | 0.00 | 0.00 | 45 | 1008.9 |
| 20260508201019 | 59 | 302 | 2.0 | 10.0 | 0.00 | 0.00 | 0.00 | 43 | 1008.8 |
| 20260508200519 | 60 | 323 | 2.0 | 10.0 | 0.00 | 0.00 | 0.00 | 43 | 1008.7 |
| 20260508200048 | 61 | 296 | 3.0 | 8.0 | 0.00 | 0.00 | 0.00 | 41 | 1008.7 |
| 20260508195518 | 61 | 257 | 3.0 | 10.0 | 0.00 | 0.00 | 0.00 | 39 | 1008.6 |
| 20260508195020 | 61 | 307 | 2.0 | 10.0 | 0.00 | 0.00 | 0.00 | 42 | 1008.5 |
| 20260508194538 | 61 | 283 | 2.0 | 7.0 | 0.00 | 0.00 | 0.00 | 40 | 1008.5 |
| 20260508194019 | 61 | 283 | 3.0 | 7.0 | 0.00 | 0.00 | 0.00 | 38 | 1008.4 |
| 20260508193519 | 61 | 333 | 2.0 | 8.0 | 0.00 | 0.00 | 0.00 | 40 | 1008.3 |
| 20260508193041 | 61 | 304 | 3.0 | 8.0 | 0.00 | 0.00 | 0.00 | 38 | 1008.3 |
| 20260508192518 | 61 | 17 | 3.0 | 7.0 | 0.00 | 0.00 | 0.00 | 38 | 1008.2 |
| 20260508192018 | 62 | 23 | 3.0 | 12.0 | 0.00 | 0.00 | 0.00 | 39 | 1008.1 |
| 20260508191541 | 62 | 3 | 2.0 | 12.0 | 0.00 | 0.00 | 0.00 | 38 | 1008.1 |
| 20260508191018 | 61 | 219 | 3.0 | 7.0 | 0.00 | 0.00 | 0.00 | 39 | 1008.2 |
| 20260508190518 | 61 | 300 | 2.0 | 6.0 | 0.00 | 0.00 | 0.00 | 40 | 1008.2 |
| 20260508190036 | 61 | 304 | 1.0 | 9.0 | 0.00 | 0.00 | 0.00 | 41 | 1008.1 |
| 20260508185519 | 61 | 266 | 3.0 | 9.0 | 0.00 | 0.00 | 0.00 | 38 | 1008.1 |
| 20260508185020 | 60 | 346 | 2.0 | 8.0 | 0.00 | 0.00 | 0.00 | 40 | 1008.2 |
| 20260508184540 | 60 | 340 | 3.0 | 8.0 | 0.00 | 0.00 | 0.00 | 39 | 1008.2 |
| 20260508184019 | 60 | 63 | 1.0 | 5.0 | 0.00 | 0.00 | 0.00 | 39 | 1008.1 |
| 20260508183521 | 60 | 17 | 2.0 | 5.0 | 0.00 | 0.00 | 0.00 | 39 | 1008.1 |
| 20260508183038 | 61 | 304 | 2.0 | 5.0 | 0.00 | 0.00 | 0.00 | 38 | 1008.0 |
| 20260508182524 | 61 | 295 | 2.0 | 9.0 | 0.00 | 0.00 | 0.00 | 38 | 1008.2 |
| 20260508182018 | 61 | 270 | 3.0 | 9.0 | 0.00 | 0.00 | 0.00 | 37 | 1008.1 |
| 20260508181539 | 61 | 257 | 2.0 | 6.0 | 0.00 | 0.00 | 0.00 | 39 | 1008.2 |
| 20260508181018 | 61 | 5 | 3.0 | 8.0 | 0.00 | 0.00 | 0.00 | 37 | 1008.1 |
| 20260508180519 | 62 | 259 | 2.0 | 8.0 | 0.00 | 0.00 | 0.00 | 37 | 1008.2 |
| 20260508180036 | 62 | 281 | 4.0 | 8.0 | 0.00 | 0.00 | 0.00 | 37 | 1008.1 |
| 20260508175518 | 62 | 265 | 2.0 | 11.0 | 0.00 | 0.00 | 0.00 | 38 | 1008.2 |
| 20260508175020 | 62 | 175 | 3.0 | 11.0 | 0.00 | 0.00 | 0.00 | 37 | 1008.1 |
| 20260508174546 | 62 | 308 | 4.0 | 9.0 | 0.00 | 0.00 | 0.00 | 36 | 1008.2 |
| 20260508174019 | 62 | 298 | 4.0 | 9.0 | 0.00 | 0.00 | 0.00 | 40 | 1008.1 |
| 20260508173519 | 61 | 335 | 3.0 | 10.0 | 0.00 | 0.00 | 0.00 | 40 | 1008.2 |
| 20260508173037 | 61 | 13 | 3.0 | 10.0 | 0.00 | 0.00 | 0.00 | 40 | 1008.2 |
| 20260508172521 | 61 | 227 | 2.0 | 11.0 | 0.00 | 0.00 | 0.00 | 37 | 1008.3 |
| 20260508172019 | 61 | 32 | 3.0 | 11.0 | 0.00 | 0.00 | 0.00 | 38 | 1008.4 |
| 20260508171538 | 62 | 269 | 3.0 | 13.0 | 0.00 | 0.00 | 0.00 | 36 | 1008.3 |
| 20260508171018 | 62 | 181 | 2.0 | 13.0 | 0.00 | 0.00 | 0.00 | 40 | 1008.3 |
| 20260508170518 | 61 | 1 | 4.0 | 10.0 | 0.00 | 0.00 | 0.00 | 39 | 1008.4 |
| 20260508170040 | 62 | 233 | 3.0 | 13.0 | 0.00 | 0.00 | 0.00 | 37 | 1008.4 |
| 20260508165519 | 62 | 249 | 3.0 | 13.0 | 0.00 | 0.00 | 0.00 | 40 | 1008.6 |
| 20260508165018 | 61 | 315 | 4.0 | 15.0 | 0.00 | 0.00 | 0.00 | 41 | 1008.6 |
| 20260508164542 | 61 | 259 | 2.0 | 15.0 | 0.00 | 0.00 | 0.00 | 40 | 1008.6 |
| 20260508164018 | 61 | 139 | 3.0 | 11.0 | 0.00 | 0.00 | 0.00 | 38 | 1008.7 |
| 20260508163518 | 61 | 219 | 3.0 | 12.0 | 0.00 | 0.00 | 0.00 | 41 | 1008.6 |
| 20260508163037 | 61 | 293 | 2.0 | 12.0 | 0.00 | 0.00 | 0.00 | 42 | 1008.7 |
| 20260508162518 | 61 | 200 | 4.0 | 11.0 | 0.00 | 0.00 | 0.00 | 38 | 1008.7 |
| 20260508162017 | 61 | 91 | 3.0 | 7.0 | 0.00 | 0.00 | 0.00 | 39 | 1008.7 |
| 20260508161542 | 60 | 113 | 3.0 | 6.0 | 0.00 | 0.00 | 0.00 | 39 | 1008.7 |
| 20260508161018 | 60 | 280 | 2.0 | 5.0 | 0.00 | 0.00 | 0.00 | 40 | 1008.8 |
| 20260508160517 | 60 | 250 | 2.0 | 5.0 | 0.00 | 0.00 | 0.00 | 39 | 1008.9 |
| 20260508160047 | 61 | 245 | 2.0 | 6.0 | 0.00 | 0.00 | 0.00 | 40 | 1009.0 |
| 20260508155518 | 60 | 306 | 3.0 | 6.0 | 0.00 | 0.00 | 0.00 | 39 | 1008.9 |
| 20260508155018 | 60 | 264 | 2.0 | 11.0 | 0.00 | 0.00 | 0.00 | 41 | 1009.1 |
| 20260508154544 | 60 | 264 | 5.0 | 11.0 | 0.00 | 0.00 | 0.00 | 39 | 1009.2 |
| 20260508154020 | 60 | 281 | 3.0 | 11.0 | 0.00 | 0.00 | 0.00 | 38 | 1009.2 |
| 20260508153522 | 59 | 15 | 3.0 | 11.0 | 0.00 | 0.00 | 0.00 | 41 | 1009.2 |
| 20260508153038 | 59 | 177 | 3.0 | 8.0 | 0.00 | 0.00 | 0.00 | 38 | 1009.3 |
| 20260508152518 | 59 | 208 | 3.0 | 10.0 | 0.00 | 0.00 | 0.00 | 39 | 1009.3 |
| 20260508152018 | 59 | 199 | 1.0 | 10.0 | 0.00 | 0.00 | 0.00 | 39 | 1009.2 |
| 20260508151537 | 59 | 269 | 2.0 | 10.0 | 0.00 | 0.00 | 0.00 | 38 | 1009.2 |
| 20260508151022 | 59 | 143 | 3.0 | 10.0 | 0.00 | 0.00 | 0.00 | 38 | 1009.4 |
| 20260508150519 | 59 | 273 | 4.0 | 8.0 | 0.00 | 0.00 | 0.00 | 37 | 1009.3 |
| 20260508150037 | 59 | 298 | 3.0 | 7.0 | 0.00 | 0.00 | 0.00 | 39 | 1009.4 |
| 20260508145518 | 59 | 312 | 2.0 | 8.0 | 0.00 | 0.00 | 0.00 | 40 | 1009.4 |
| 20260508145020 | 59 | 259 | 3.0 | 8.0 | 0.00 | 0.00 | 0.00 | 38 | 1009.1 |
| 20260508144536 | 58 | 4 | 1.0 | 5.0 | 0.00 | 0.00 | 0.00 | 41 | 1009.3 |
| 20260508144018 | 58 | 292 | 2.0 | 5.0 | 0.00 | 0.00 | 0.00 | 41 | 1009.4 |
| 20260508143517 | 58 | 287 | 1.0 | 6.0 | 0.00 | 0.00 | 0.00 | 41 | 1009.4 |
| 20260508143047 | 58 | 145 | 1.0 | 12.0 | 0.00 | 0.00 | 0.00 | 42 | 1009.3 |
| 20260508142519 | 57 | 303 | 2.0 | 12.0 | 0.00 | 0.00 | 0.00 | 43 | 1009.4 |
| 20260508142018 | 57 | 206 | 2.0 | 11.0 | 0.00 | 0.00 | 0.00 | 40 | 1009.5 |
| 20260508141539 | 57 | 10 | 2.0 | 11.0 | 0.00 | 0.00 | 0.00 | 42 | 1009.6 |
| 20260508141020 | 57 | 207 | 3.0 | 9.0 | 0.00 | 0.00 | 0.00 | 41 | 1009.5 |
| 20260508140518 | 57 | 206 | 2.0 | 6.0 | 0.00 | 0.00 | 0.00 | 43 | 1009.7 |
| 20260508140042 | 57 | 42 | 2.0 | 6.0 | 0.00 | 0.00 | 0.00 | 43 | 1009.8 |
| 20260508135518 | 57 | 266 | 1.0 | 6.0 | 0.00 | 0.00 | 0.00 | 43 | 1009.7 |
| 20260508135018 | 56 | 219 | 1.0 | 5.0 | 0.00 | 0.00 | 0.00 | 43 | 1009.8 |
| 20260508134541 | 56 | 20 | 1.0 | 7.0 | 0.00 | 0.00 | 0.00 | 46 | 1009.8 |
| 20260508134018 | 56 | 35 | 3.0 | 7.0 | 0.00 | 0.00 | 0.00 | 45 | 1009.9 |
| 20260508133520 | 56 | 282 | 3.0 | 6.0 | 0.00 | 0.00 | 0.00 | 41 | 1010.1 |
| 20260508133037 | 56 | 25 | 2.0 | 7.0 | 0.00 | 0.00 | 0.00 | 43 | 1010.0 |
| 20260508132521 | 56 | 299 | 2.0 | 7.0 | 0.00 | 0.00 | 0.00 | 45 | 1010.0 |
| 20260508132018 | 56 | 0 | 1.0 | 10.0 | 0.00 | 0.00 | 0.00 | 45 | 1009.8 |
| 20260508131539 | 55 | 163 | 1.0 | 10.0 | 0.00 | 0.00 | 0.00 | 44 | 1010.0 |
| 20260508131020 | 55 | 24 | 2.0 | 5.0 | 0.00 | 0.00 | 0.00 | 45 | 1009.9 |
| 20260508130519 | 55 | 23 | 1.0 | 7.0 | 0.00 | 0.00 | 0.00 | 46 | 1010.0 |
| 20260508130051 | 54 | 297 | 2.0 | 7.0 | 0.00 | 0.00 | 0.00 | 46 | 1010.0 |
| 20260508125518 | 55 | 206 | 2.0 | 6.0 | 0.00 | 0.00 | 0.00 | 48 | 1010.0 |
| 20260508125018 | 54 | 149 | 0.0 | 1.0 | 0.00 | 0.00 | 0.00 | 51 | 1010.0 |
| 20260508124542 | 53 | 0 | 0.0 | 3.0 | 0.00 | 0.00 | 0.00 | 50 | 1010.1 |
| 20260508124019 | 53 | 32 | 0.0 | 3.0 | 0.00 | 0.00 | 0.00 | 52 | 1010.1 |
| 20260508123519 | 52 | 30 | 1.0 | 2.0 | 0.00 | 0.00 | 0.00 | 50 | 1010.2 |
| 20260508123050 | 52 | 350 | 1.0 | 2.0 | 0.00 | 0.00 | 0.00 | 50 | 1010.3 |
| 20260508122518 | 52 | 260 | 0.0 | 1.0 | 0.00 | 0.00 | 0.00 | 51 | 1010.1 |
| 20260508122018 | 52 | 260 | 0.0 | 1.0 | 0.00 | 0.00 | 0.00 | 51 | 1010.2 |
| 20260508121542 | 52 | 256 | 0.0 | 1.0 | 0.00 | 0.00 | 0.00 | 54 | 1010.2 |
| 20260508121020 | 52 | 0 | 0.0 | 2.0 | 0.00 | 0.00 | 0.00 | 57 | 1010.1 |
| 20260508120518 | 51 | 239 | 0.0 | 2.0 | 0.00 | 0.00 | 0.00 | 55 | 1010.1 |
| 20260508120037 | 51 | 289 | 1.0 | 2.0 | 0.00 | 0.00 | 0.00 | 55 | 1010.3 |
| 20260508115518 | 51 | 300 | 0.0 | 5.0 | 0.00 | 0.04 | 0.00 | 57 | 1010.3 |
| 20260508115018 | 50 | 265 | 1.0 | 5.0 | 0.00 | 0.04 | 0.00 | 59 | 1010.3 |
| 20260508114546 | 49 | 0 | 0.0 | 1.0 | 0.00 | 0.04 | 0.00 | 61 | 1010.3 |
| 20260508114018 | 49 | 0 | 0.0 | 1.0 | 0.00 | 0.04 | 0.00 | 63 | 1010.4 |
| 20260508113518 | 47 | 144 | 0.0 | 1.0 | 0.00 | 0.04 | 0.00 | 65 | 1010.3 |
| 20260508113036 | 46 | 0 | 0.0 | 1.0 | 0.00 | 0.04 | 0.00 | 67 | 1010.2 |
| 20260508112517 | 46 | 0 | 0.0 | 2.0 | 0.00 | 0.04 | 0.00 | 68 | 1010.2 |
| 20260508112018 | 45 | 0 | 0.0 | 2.0 | 0.00 | 0.04 | 0.00 | 69 | 1010.1 |
| 20260508111542 | 45 | 0 | 0.0 | 3.0 | 0.00 | 0.04 | 0.00 | 69 | 1010.2 |
| 20260508111020 | 44 | 0 | 1.0 | 4.0 | 0.00 | 0.04 | 0.00 | 70 | 1010.1 |
| 20260508110518 | 44 | 252 | 0.0 | 4.0 | 0.00 | 0.04 | 0.00 | 71 | 1010.1 |
| 20260508110040 | 42 | 184 | 0.0 | 2.0 | 0.00 | 0.04 | 0.00 | 74 | 1010.1 |
| 20260508105521 | 41 | 0 | 0.0 | 1.0 | 0.00 | 0.05 | 0.00 | 76 | 1010.0 |
| 20260508105018 | 41 | 0 | 0.0 | 0.0 | 0.00 | 0.05 | 0.00 | 76 | 1009.9 |
| 20260508104543 | 41 | 0 | 0.0 | 1.0 | 0.00 | 0.05 | 0.00 | 76 | 1009.9 |
| 20260508104018 | 41 | 0 | 0.0 | 1.0 | 0.00 | 0.05 | 0.00 | 76 | 1009.9 |
| 20260508103518 | 41 | 0 | 0.0 | 0.0 | 0.00 | 0.05 | 0.00 | 77 | 1009.8 |
| 20260508103043 | 40 | 0 | 0.0 | 1.0 | 0.00 | 0.05 | 0.00 | 78 | 1009.8 |
| 20260508102519 | 40 | 0 | 0.0 | 1.0 | 0.00 | 0.05 | 0.00 | 78 | 1009.6 |
| 20260508102018 | 40 | 0 | 0.0 | 1.0 | 0.00 | 0.05 | 0.00 | 79 | 1009.6 |
| 20260508101541 | 40 | 0 | 0.0 | 1.0 | 0.00 | 0.05 | 0.00 | 80 | 1009.7 |
| 20260508101017 | 39 | 0 | 0.0 | 1.0 | 0.00 | 0.05 | 0.00 | 81 | 1009.6 |
| 20260508100522 | 39 | 293 | 0.0 | 1.0 | 0.00 | 0.05 | 0.00 | 82 | 1009.7 |
| 20260508100040 | 38 | 0 | 0.0 | 0.0 | 0.00 | 0.05 | 0.00 | 82 | 1009.4 |
| 20260508095520 | 38 | 0 | 0.0 | 0.0 | 0.00 | 0.07 | 0.00 | 83 | 1009.4 |
| 20260508095018 | 38 | 0 | 0.0 | 1.0 | 0.00 | 0.07 | 0.00 | 83 | 1009.2 |
| 20260508094543 | 38 | 0 | 0.0 | 1.0 | 0.00 | 0.07 | 0.00 | 83 | 1009.2 |
| 20260508094017 | 38 | 0 | 0.0 | 0.0 | 0.00 | 0.07 | 0.00 | 82 | 1009.2 |
| 20260508093518 | 38 | 0 | 0.0 | 0.0 | 0.00 | 0.07 | 0.00 | 83 | 1009.2 |
| 20260508093042 | 38 | 0 | 0.0 | 0.0 | 0.00 | 0.07 | 0.00 | 82 | 1009.2 |
| 20260508092522 | 38 | 0 | 0.0 | 0.0 | 0.00 | 0.07 | 0.00 | 82 | 1009.2 |
| 20260508092024 | 38 | 0 | 0.0 | 0.0 | 0.00 | 0.07 | 0.00 | 82 | 1009.1 |
| 20260508091550 | 38 | 0 | 0.0 | 0.0 | 0.00 | 0.07 | 0.00 | 82 | 1009.2 |
| 20260508091018 | 38 | 0 | 0.0 | 0.0 | 0.00 | 0.07 | 0.00 | 82 | 1009.2 |
| 20260508090519 | 37 | 295 | 0.0 | 0.0 | 0.00 | 0.07 | 0.00 | 82 | 1009.1 |
| 20260508090052 | 37 | 0 | 0.0 | 0.0 | 0.00 | 0.07 | 0.00 | 83 | 1009.1 |
| 20260508085522 | 37 | 0 | 0.0 | 0.0 | 0.00 | 0.19 | 0.00 | 83 | 1009.1 |
| 20260508085021 | 38 | 0 | 0.0 | 0.0 | 0.00 | 0.19 | 0.00 | 83 | 1009.1 |
| 20260508084535 | 38 | 0 | 0.0 | 0.0 | 0.00 | 0.19 | 0.00 | 82 | 1009.2 |
| 20260508084017 | 38 | 0 | 0.0 | 0.0 | 0.00 | 0.19 | 0.00 | 82 | 1009.0 |
| 20260508083518 | 38 | 0 | 0.0 | 0.0 | 0.00 | 0.19 | 0.00 | 81 | 1009.0 |
| 20260508083040 | 38 | 0 | 0.0 | 0.0 | 0.00 | 0.19 | 0.00 | 81 | 1008.8 |
| 20260508082521 | 38 | 0 | 0.0 | 0.0 | 0.00 | 0.19 | 0.00 | 81 | 1008.7 |
| 20260508082018 | 38 | 0 | 0.0 | 0.0 | 0.00 | 0.19 | 0.00 | 81 | 1008.7 |
| 20260508081541 | 38 | 0 | 0.0 | 0.0 | 0.00 | 0.19 | 0.00 | 80 | 1008.6 |
| 20260508081022 | 38 | 0 | 0.0 | 0.0 | 0.00 | 0.19 | 0.00 | 80 | 1008.5 |
| 20260508080517 | 39 | 0 | 0.0 | 0.0 | 0.00 | 0.19 | 0.00 | 79 | 1008.3 |
| 20260508080042 | 39 | 0 | 0.0 | 0.0 | 0.00 | 0.19 | 0.00 | 79 | 1008.2 |
| 20260508075519 | 39 | 0 | 0.0 | 0.0 | 0.00 | 0.28 | 0.00 | 77 | 1008.3 |
| 20260508075017 | 39 | 0 | 0.0 | 0.0 | 0.00 | 0.28 | 0.00 | 77 | 1008.2 |
| 20260508074539 | 39 | 0 | 0.0 | 0.0 | 0.00 | 0.28 | 0.00 | 76 | 1008.0 |
| 20260508074018 | 40 | 0 | 0.0 | 0.0 | 0.00 | 0.28 | 0.00 | 75 | 1007.8 |
| 20260508073521 | 40 | 0 | 0.0 | 0.0 | 0.00 | 0.28 | 0.00 | 75 | 1007.8 |
| 20260508073044 | 40 | 0 | 0.0 | 0.0 | 0.00 | 0.28 | 0.00 | 74 | 1007.7 |
| 20260508072518 | 41 | 0 | 0.0 | 0.0 | 0.00 | 0.28 | 0.00 | 73 | 1007.6 |
| 20260508072018 | 41 | 0 | 0.0 | 0.0 | 0.00 | 0.28 | 0.00 | 72 | 1007.5 |
| 20260508071546 | 41 | 0 | 0.0 | 0.0 | 0.00 | 0.28 | 0.00 | 71 | 1007.4 |
| 20260508071018 | 42 | 0 | 0.0 | 0.0 | 0.00 | 0.28 | 0.00 | 70 | 1007.4 |
| 20260508070520 | 42 | 0 | 0.0 | 0.0 | 0.00 | 0.28 | 0.00 | 69 | 1007.2 |
| 20260508070051 | 42 | 0 | 0.0 | 0.0 | 0.00 | 0.28 | 0.00 | 69 | 1007.3 |
| 20260508065522 | 43 | 0 | 0.0 | 0.0 | 0.00 | 0.28 | 0.00 | 67 | 1007.4 |
| 20260508065021 | 43 | 0 | 0.0 | 0.0 | 0.00 | 0.28 | 0.00 | 66 | 1007.4 |
| 20260508064542 | 44 | 0 | 0.0 | 0.0 | 0.00 | 0.28 | 0.00 | 64 | 1007.5 |
| 20260508064021 | 44 | 0 | 0.0 | 0.0 | 0.00 | 0.28 | 0.00 | 62 | 1007.5 |
| 20260508063518 | 44 | 0 | 0.0 | 0.0 | 0.00 | 0.28 | 0.00 | 64 | 1007.5 |
| 20260508063038 | 44 | 0 | 0.0 | 0.0 | 0.00 | 0.28 | 0.00 | 65 | 1007.5 |
| 20260508062517 | 45 | 0 | 0.0 | 0.0 | 0.00 | 0.28 | 0.00 | 64 | 1007.6 |
| 20260508062018 | 45 | 0 | 0.0 | 0.0 | 0.00 | 0.28 | 0.00 | 62 | 1007.4 |
| 20260508061537 | 46 | 0 | 0.0 | 1.0 | 0.00 | 0.28 | 0.00 | 61 | 1007.3 |
| 20260508061019 | 46 | 0 | 0.0 | 1.0 | 0.00 | 0.28 | 0.00 | 59 | 1007.4 |
| 20260508060520 | 46 | 0 | 0.0 | 1.0 | 0.00 | 0.28 | 0.00 | 59 | 1007.5 |
| 20260508060039 | 46 | 0 | 0.0 | 1.0 | 0.00 | 0.28 | 0.00 | 60 | 1007.5 |
| 20260508055518 | 47 | 0 | 0.0 | 1.0 | 0.00 | 0.28 | 0.00 | 59 | 1007.6 |
| 20260508055021 | 47 | 0 | 0.0 | 1.0 | 0.00 | 0.28 | 0.00 | 57 | 1007.6 |
| 20260508054543 | 47 | 301 | 0.0 | 1.0 | 0.00 | 0.28 | 0.00 | 56 | 1007.5 |
| 20260508054018 | 48 | 301 | 0.0 | 1.0 | 0.00 | 0.28 | 0.00 | 56 | 1007.5 |
| 20260508053521 | 48 | 0 | 0.0 | 1.0 | 0.00 | 0.28 | 0.00 | 55 | 1007.5 |
| 20260508053038 | 48 | 301 | 0.0 | 1.0 | 0.00 | 0.28 | 0.00 | 55 | 1007.4 |
| 20260508052519 | 49 | 0 | 0.0 | 2.0 | 0.00 | 0.28 | 0.00 | 54 | 1007.4 |
| 20260508052018 | 49 | 301 | 0.0 | 3.0 | 0.00 | 0.28 | 0.00 | 53 | 1007.5 |
| 20260508051540 | 49 | 250 | 1.0 | 3.0 | 0.00 | 0.28 | 0.00 | 52 | 1007.6 |
| 20260508051018 | 50 | 297 | 1.0 | 3.0 | 0.00 | 0.28 | 0.00 | 52 | 1007.5 |
| 20260508050518 | 50 | 294 | 0.0 | 3.0 | 0.00 | 0.28 | 0.00 | 53 | 1007.4 |
| 20260508050039 | 50 | 0 | 1.0 | 3.0 | 0.00 | 0.28 | 0.00 | 52 | 1007.5 |
| 20260508045521 | 50 | 295 | 1.0 | 3.0 | 0.00 | 0.28 | 0.00 | 51 | 1007.5 |